Home   Weather   Mersin   Past weeks

Flag for Turkey Past Weather in Mersin, Turkey — Yesterday and Last 2 Weeks

Now
50 °F

Clear.


Feels Like: 50 °F
Forecast: 60 / 68 °F
Wind: 2 mph from Northeast

Location: Adana / Sakirpasa

Current Time: Feb 28, 2017 at 4:15:50 am

Latest Report: Feb 28, 2017 at 3:20 am


Visibility: 10 mi

Pressure: 29.98 "Hg

Humidity: 47%

Dew Point: 30 °F

Location of MersinLocation

Past Weather in Mersin — Graph

°F

Mersin Temperature Yesterday

Maximum temperature yesterday: 73 °F (at 2:50 pm)
Minimum temperature yesterday: 45 °F (at 4:20 am)
Average temperature yesterday: 58 °F

High & Low Weather Summary for the Past Weeks

 TemperatureHumidityPressure
High73 °F (Feb 27, 2:50 pm)94% (Feb 23, 11:50 pm)30.45 "Hg (Feb 23, 11:50 pm)
Low32 °F (Feb 18, 5:50 am)14% (Feb 27, 4:20 pm)29.95 "Hg (Feb 13, 2:50 pm)
Average51 °F50%30.16 "Hg
* Reported Feb 13 2:20 am — Feb 28 2:50 am, Mersin, Weather by CustomWeather, © 2017

Note: Actual official high and low records may vary slightly from our data, if they occured in-between our weather recording intervals... More about our weather records

Advertising

Mersin Weather History for the Previous 24 Hours

Scroll right to see more
 ConditionsComfort  
Time TempWeatherWind HumidityBarometerVisibility
2:50 am
Tue, Feb 28
52 °FClear.2 mph44%29.98 "Hg10 mi
2:20 am52 °FClear.2 mph47%29.98 "Hg10 mi
1:50 am55 °FClear.3 mph41%29.98 "Hg10 mi
1:20 am55 °FClear.5 mph41%29.98 "Hg10 mi
12:50 am57 °FClear.5 mph39%29.98 "Hg10 mi
12:20 am52 °FClear.6 mph54%30.01 "Hg10 mi
11:50 pm
Mon, Feb 27
55 °FClear.3 mph44%30.01 "Hg10 mi
11:20 pm59 °FClear.3 mph42%30.01 "Hg10 mi
10:50 pm59 °FClear.5 mph45%30.01 "Hg10 mi
10:20 pm61 °FHaze.6 mph39%30.01 "Hg2 mi
9:50 pm59 °FHaze.3 mph45%30.01 "Hg2 mi
9:20 pm59 °FHaze.5 mph45%30.01 "Hg2 mi
8:20 pm61 °FRain. Haze.2 mph39%30.01 "Hg2 mi
7:50 pm63 °FRain. Haze.3 mph34%30.01 "Hg3 mi
7:20 pm64 °FPassing clouds.3 mph30%30.01 "Hg3 mi
6:50 pm66 °FPartly cloudy.2 mph26%29.98 "Hg3 mi
6:20 pm70 °FBroken clouds.3 mph21%29.98 "HgN/A
5:50 pm70 °FBroken clouds.5 mph20%29.98 "HgN/A
5:20 pm72 °FBroken clouds.5 mph19%29.98 "HgN/A
4:50 pm73 °FBroken clouds.5 mph16%29.98 "HgN/A
4:20 pm73 °FBroken clouds.5 mph14%29.98 "HgN/A
3:50 pm73 °FBroken clouds.5 mph15%29.98 "HgN/A
3:20 pm73 °FBroken clouds.5 mph16%29.98 "HgN/A
2:50 pm73 °FBroken clouds.5 mph16%30.01 "HgN/A
2:20 pm72 °FBroken clouds.5 mph29%30.01 "HgN/A
1:50 pm70 °FBroken clouds.6 mph31%30.01 "HgN/A
1:20 pm70 °FBroken clouds.6 mph33%30.04 "HgN/A
12:50 pm68 °FBroken clouds.5 mph38%30.04 "HgN/A
12:20 pm66 °FBroken clouds.3 mph40%30.07 "HgN/A
11:50 am66 °FBroken clouds.5 mph40%30.07 "HgN/A
11:20 am64 °FBroken clouds.5 mph43%30.07 "HgN/A
10:50 am63 °FBroken clouds.5 mph45%30.07 "HgN/A
10:20 am61 °FBroken clouds.3 mph52%30.07 "HgN/A
9:50 am59 °FScattered clouds.2 mph51%30.07 "HgN/A
9:20 am55 °FScattered clouds.6 mph63%30.07 "HgN/A
8:50 am52 °FScattered clouds.7 mph77%30.07 "HgN/A
8:20 am46 °FScattered clouds.No wind87%30.07 "HgN/A
7:50 am46 °FScattered clouds.5 mph82%30.07 "HgN/A
7:20 am45 °FScattered clouds.7 mph81%30.07 "HgN/A
6:50 am45 °FPassing clouds.3 mph87%30.07 "HgN/A
6:20 am45 °FPassing clouds.5 mph93%30.07 "HgN/A
5:50 am46 °FPassing clouds.2 mph87%30.07 "HgN/A
5:20 am45 °FPassing clouds.1 mph87%30.07 "HgN/A
4:50 am45 °FPassing clouds.No wind87%30.07 "HgN/A
4:20 am45 °FPassing clouds.No wind93%30.07 "HgN/A
Weather by CustomWeather, © 2017

See weather overviewHow to use our weather pages